Regional Weather Roundup
Issued by NWS Cleveland, OH

Home | Current Version | Previous Version | Text Only | Print | Product List | Glossary Off
Versions: 1 2 3 4 5 6 7 8 9 10 11 12 13 14 15 16 17 18 19 20 21 22 23 24 25 26 27 28 29 30 31 32 33 34 35 36 37 38 39 40 41 42 43 44 45 46 47 48 49 50

000
ASUS41 KCLE 201110
RWRCLE
OHIO REGIONAL WEATHER ROUNDUP
NATIONAL WEATHER SERVICE CLEVELAND, OH
700 AM EDT FRI APR 20 2018

NOTE: "FAIR" INDICATES FEW OR NO CLOUDS BELOW 12,000 FEET WITH NO
SIGNIFICANT WEATHER AND/OR OBSTRUCTIONS TO VISIBILITY.

OHZ001>008-015>018-024>027-034-035-043-044-201200-
   NORTHWEST OHIO

CITY           SKY/WX    TMP DP  RH WIND       PRES   REMARKS
DEFIANCE       FAIR      30  23  75 NW7       30.45R WCI  23
FINDLAY        FAIR      31  24  75 W6        30.42R WCI  25
TOLEDO EXPRESS FAIR      30  21  69 W5        30.43R WCI  25
TOLEDO EXEC    FAIR      32  20  61 NW3       30.43R
LIMA           FAIR      31  25  78 NW6       30.42R WCI  25
$$

OHZ009>014-019>023-028>033-038-089-201200-
   NORTHEAST OHIO

CITY           SKY/WX    TMP DP  RH WIND       PRES   REMARKS
CLE-HOPKINS    FAIR      31  27  85 W6        30.40R WCI  25
CLE-LAKEFRONT  FAIR      38  26  62 N15       30.37R
CUY CO. ARPT   CLEAR     36  27  69 N12       30.36
LORAIN-ELYRIA  FAIR      30  25  81 NW8       30.40R WCI  22
ASHTABULA      FAIR      32  27  81 W3        30.35R
AKRON-CANTON   FAIR      28  21  75 W8        30.36R WCI  20
WOOSTER        FAIR      28  24  85 NW5       30.38R WCI  23
MANSFIELD      FAIR      30  26  85 W5        30.38R WCI  25
YOUNGSTOWN     FAIR      28  22  78 CALM      30.33R
$$

OHZ042-051>053-060>062-070>072-077>081-201200-
  SOUTHWEST OHIO

CITY           SKY/WX    TMP DP  RH WIND       PRES   REMARKS
CINC-COVINGTON FAIR      33  27  78 N9        30.42R WCI  25
CINC-LUNKEN    FAIR      34  29  82 N5        30.45R WCI  30
HAMILTON       FAIR      33  29  85 CALM      30.45R
DAYTON         FAIR      30  27  88 NW6       30.43R WCI  24
WRIGHT-PAT AFB FAIR      29  25  84 CALM      30.42R
DAYTON GENERAL FAIR      33  27  78 N3        30.41R
WILMINGTON     FAIR      31  28  89 N5        30.41R WCI  26
$$

OHZ036-037-039>041-045>050-054>059-063>069-073>076-082>088-201200-
  CENTRAL AND SOUTHEAST OHIO

CITY           SKY/WX    TMP DP  RH WIND       PRES   REMARKS
COLUMBUS       FAIR      31  25  78 CALM      30.41R
OSU AIRPORT    FAIR      30  26  85 W5        30.41R WCI  25
BOLTON FIELD   FAIR      27  26  96 CALM      30.42R
RICKENBACK AFB FAIR      30  26  86 CALM      30.42R
NEWARK         FAIR      27  24  89 CALM      30.40R
MARION         FAIR      26  24  92 CALM      30.41R
LANCASTER      FAIR      28  25  88 CALM      30.41R
ZANESVILLE     FAIR      26  22  84 W3        30.39R
NEW PHILLY     FAIR      26  23  88 CALM      30.39R
$$




USA.gov is the U.S. government's official web portal to all federal, state and local government web resources and services.